N6XE-13 Weather Reports


time (UTC)temp
C
wind
direction
speed
KPH
gust
KPH
rain 1hr
cm
rain 24hr
cm
rain mn
cm
humidity
%
barometer
mb
20260901213005 25 305 0.0 11.3 0.00 0.00 0.00 42 1017.7
20260901210006 26 272 0.0 17.7 0.00 0.00 0.00 41 1017.9
20260901203005 25 224 0.0 14.5 0.00 0.00 0.00 42 1018.1
20260901200006 25 282 0.0 8.0 0.00 0.00 0.00 43 1018.3
20260901193005 24 276 0.0 12.9 0.00 0.00 0.00 45 1018.7
20260901183005 22 228 0.0 6.4 0.00 0.00 0.00 51 1019.0
20260901180008 22 299 0.0 9.7 0.00 0.00 0.00 54 1019.0
20260901173005 21 251 0.0 11.3 0.00 0.00 0.00 57 1019.0
20260901170005 20 174 0.0 4.8 0.00 0.00 0.00 60 1019.0
20260901163005 19 235 0.0 6.4 0.00 0.00 0.00 64 1018.8
20260901160005 17 130 0.0 8.0 0.00 0.00 0.00 72 1018.6
20260901153005 16 168 0.0 4.8 0.00 0.00 0.00 78 1018.3
20260901150005 15 158 0.0 1.6 0.00 0.00 0.00 82 1017.9
20260901143005 13 0.0 0.0 0.00 0.00 0.00 89 1017.6
20260901140005 12 0.0 0.0 0.00 0.00 0.00 92 1017.2
20260901133005 12 0.0 0.0 0.00 0.00 0.00 88 1016.9
20260901130006 13 0.0 0.0 0.00 0.00 0.00 84 1016.7
20260901123005 13 248 0.0 8.0 0.00 0.00 0.00 86 1016.6
20260901120005 12 0.0 0.0 0.00 0.00 0.00 85 1016.6
20260901113005 13 0.0 0.0 0.00 0.00 0.00 83 1016.2
20260901110005 13 278 0.0 8.0 0.00 0.00 0.00 84 1016.0
20260901103005 13 323 0.0 6.4 0.00 0.00 0.00 86 1015.9
20260901100005 13 0.0 0.0 0.00 0.00 0.00 84 1016.0
20260901093005 14 284 0.0 4.8 0.00 0.00 0.00 82 1015.9
20260901090005 14 306 0.0 8.0 0.00 0.00 0.00 80 1015.9
20260901083005 15 287 0.0 8.0 0.00 0.00 0.00 79 1016.0
20260901080005 15 289 0.0 12.9 0.00 0.00 0.00 77 1015.8
20260901073005 15 275 0.0 14.5 0.00 0.00 0.00 77 1015.8
20260901070005 16 282 0.0 16.1 0.00 0.00 0.00 77 1015.8
20260901063006 16 284 0.0 24.1 0.00 0.00 0.00 78 1015.9
20260901060006 16 279 0.0 19.3 0.00 0.00 0.00 77 1015.7
20260901053006 16 276 0.0 19.3 0.00 0.00 0.00 76 1015.4
20260901050006 16 265 0.0 17.7 0.00 0.00 0.00 75 1015.3
20260901043005 16 274 0.0 22.5 0.00 0.00 0.00 75 1015.2
20260901040005 17 289 0.0 22.5 0.00 0.00 0.00 74 1014.9
20260901033005 17 282 0.0 27.4 0.00 0.00 0.00 72 1014.4
20260901030005 18 292 0.0 27.4 0.00 0.00 0.00 70 1014.0
20260901023005 19 278 0.0 22.5 0.00 0.00 0.00 66 1013.9
20260901020005 20 273 0.0 25.7 0.00 0.00 0.00 62 1013.7
20260901013005 23 273 0.0 24.1 0.00 0.00 0.00 55 1013.5
20260901010005 24 274 0.0 17.7 0.00 0.00 0.00 52 1013.3
20260901003005 25 266 0.0 24.1 0.00 0.00 0.00 49 1013.4
20260901000005 26 279 0.0 19.3 0.00 0.00 0.00 45 1013.4
20260831233005 25 279 0.0 19.3 0.00 0.00 0.00 47 1013.8
20260831230005 25 267 0.0 24.1 0.00 0.00 0.00 48 1013.9
20260831223005 25 284 0.0 27.4 0.00 0.00 0.00 49 1014.1
20260831220006 25 246 0.0 24.1 0.00 0.00 0.00 47 1014.4